Find Praetorian SDA-604

NORAD ID: 65567 Int'l Des: 2025-203 Owner: SDA Country: US operational
LEOCIRCULARPOLAR

实时位置

正在加载3D地球...

关于 Praetorian SDA-604

正在加载描述...

即将过境

Passes for default location (London). Set your location on the main map for personalized predictions.

高度历史

Loading altitude history...

两行轨道根数

1 65567U 25203C 26105.85468876 .00000032 00000-0 18391-4 0 9998
2 65567 81.3041 68.6911 0006130 21.3178 338.8232 13.83038769 30067
Epoch: Apr 15, 2026 • Age: 9 hours

当前状态

高度 963.1 km
速度 7.37 km/s
星下点 54.11°N, 55.14°W
发射日期 Sep 10, 2025
运行时间 0.5 years
类型 other

技术详情

分类 Payload
质量 300.00 kg
干质量 300.00 kg
总质量 300.00 kg
长度 1.00 m
直径 0.60 m
跨度 2.00 m
形状 Box + panels
制造商 YORKSS
平台类型 S-Class
阶段状态 In Orbit
所有者/国家 SDA/US

Most Searched